CFG068 EDDL-HEGN

Flight info

Callsign CFG068
Flight time N/A
Altitude 33000
Route DODEN7J DODEN Y853 BOMBI DCT DETEV DCT DINKU M867 XERUM DCT BAVAX DCT RADIZ DCT MODRO DCT DARZA DCT PINDO UL607 ATV DCT GENDO UL607 PAXIS Y707 OBRAN L321 REXUM M872 HGD
Aircraft A21N/M-SDE2E3FGHIRWXY/LB1

Departure

Time 2026-02-18 09:24
Airport Düsseldorf Airport (EDDL)

Arrival

Time N/A
Airport Hurghada International Airport (HEGN)
Time Latitude Longitude Altitude Speed Heading
2026-02-18 08:58 51.27655 6.76150 134 ft 0 kts 79°
2026-02-18 09:12 51.27653 6.76139 134 ft 3 kts 78°
2026-02-18 09:12 51.27648 6.76108 135 ft 3 kts 67°
2026-02-18 09:12 51.27640 6.76083 136 ft 2 kts 54°
2026-02-18 09:12 51.27628 6.76062 136 ft 3 kts 31°
2026-02-18 09:13 51.27613 6.76054 136 ft 3 kts 350°
2026-02-18 09:13 51.27584 6.76074 136 ft 0 kts 333°
2026-02-18 09:16 51.27586 6.76073 136 ft 2 kts 333°
2026-02-18 09:16 51.27614 6.76052 136 ft 7 kts 339°
2026-02-18 09:16 51.27678 6.76044 135 ft 10 kts 358°
2026-02-18 09:17 51.27752 6.76042 135 ft 11 kts 359°
2026-02-18 09:17 51.27844 6.75903 134 ft 13 kts 274°
2026-02-18 09:17 51.27859 6.75762 134 ft 13 kts 277°
2026-02-18 09:18 51.27885 6.75622 133 ft 14 kts 320°
2026-02-18 09:18 51.27951 6.75561 134 ft 0 kts 334°
2026-02-18 09:18 51.27950 6.75561 134 ft 0 kts 334°
2026-02-18 09:18 51.27950 6.75562 134 ft 0 kts 334°
2026-02-18 09:19 51.27961 6.75553 134 ft 4 kts 334°
2026-02-18 09:19 51.27980 6.75538 134 ft 0 kts 334°
2026-02-18 09:22 51.28007 6.75517 133 ft 7 kts 335°
2026-02-18 09:23 51.28066 6.75495 132 ft 11 kts 358°
2026-02-18 09:23 51.28126 6.75542 133 ft 0 kts 53°
2026-02-18 09:23 51.28126 6.75543 133 ft 3 kts 53°
2026-02-18 09:23 51.28286 6.75880 134 ft 71 kts 51°
2026-02-18 09:24 51.28712 6.76772 134 ft 131 kts 53°
2026-02-18 09:24 51.29352 6.78127 358 ft 161 kts 53°
2026-02-18 09:24 51.30015 6.79530 1172 ft 158 kts 54°
2026-02-18 09:24 51.30687 6.80998 1558 ft 175 kts 54°
2026-02-18 09:25 51.31457 6.82678 1809 ft 198 kts 54°
2026-02-18 09:25 51.33319 6.86575 2416 ft 246 kts 56°
2026-02-18 09:25 51.34323 6.88833 3115 ft 251 kts 56°
2026-02-18 09:26 51.35140 6.91300 3877 ft 253 kts 75°
2026-02-18 09:26 51.35290 6.94092 4655 ft 255 kts 97°
2026-02-18 09:26 51.34913 6.96878 5412 ft 257 kts 100°
2026-02-18 09:26 51.34560 6.99711 6126 ft 262 kts 99°
2026-02-18 09:27 51.34223 7.02609 6813 ft 267 kts 98°
2026-02-18 09:27 51.33973 7.05563 7490 ft 270 kts 95°
2026-02-18 09:27 51.33691 7.08535 8244 ft 272 kts 99°
2026-02-18 09:27 51.33343 7.11535 8883 ft 276 kts 97°
2026-02-18 09:28 51.33075 7.14586 9589 ft 278 kts 96°
2026-02-18 09:28 51.32557 7.17591 10178 ft 286 kts 114°
2026-02-18 09:28 51.31362 7.20231 10477 ft 303 kts 132°
2026-02-18 09:28 51.29831 7.22616 10734 ft 320 kts 135°
2026-02-18 09:29 51.28151 7.25158 10969 ft 336 kts 135°
2026-02-18 09:29 51.24660 7.30554 11484 ft 365 kts 134°
2026-02-18 09:29 51.22835 7.33413 12012 ft 370 kts 134°
2026-02-18 09:30 51.20993 7.36306 12598 ft 373 kts 134°
2026-02-18 09:30 51.19153 7.39198 13464 ft 366 kts 135°
2026-02-18 09:30 51.17387 7.41972 14733 ft 346 kts 135°
2026-02-18 09:30 51.15718 7.44591 15857 ft 332 kts 136°
2026-02-18 09:31 51.14038 7.47192 16241 ft 341 kts 137°
2026-02-18 09:31 51.12293 7.49851 16495 ft 354 kts 137°
2026-02-18 09:31 51.10489 7.52595 16707 ft 367 kts 137°
2026-02-18 09:31 51.08613 7.55456 16918 ft 380 kts 138°
2026-02-18 09:32 51.06672 7.58416 17126 ft 393 kts 138°
2026-02-18 09:32 51.04666 7.61471 17336 ft 405 kts 138°
2026-02-18 09:32 51.02600 7.64615 17538 ft 417 kts 138°
2026-02-18 09:32 51.00474 7.67845 17775 ft 427 kts 138°
2026-02-18 09:33 50.98308 7.71131 18187 ft 432 kts 138°
2026-02-18 09:33 50.93482 7.76838 18983 ft 435 kts 151°
2026-02-18 09:33 50.90899 7.79360 19396 ft 438 kts 152°
2026-02-18 09:34 50.88293 7.81904 19797 ft 441 kts 152°
2026-02-18 09:34 50.85680 7.84461 20191 ft 444 kts 152°
2026-02-18 09:34 50.83047 7.87042 20590 ft 447 kts 152°
2026-02-18 09:34 50.80401 7.89636 20977 ft 449 kts 152°
2026-02-18 09:35 50.77733 7.92248 21363 ft 452 kts 152°
2026-02-18 09:35 50.75087 7.94836 21734 ft 455 kts 152°
2026-02-18 09:35 50.72387 7.97473 22105 ft 458 kts 152°
2026-02-18 09:35 50.70551 7.99264 22328 ft 460 kts 152°
2026-02-18 09:36 50.67812 8.01930 22646 ft 464 kts 152°
2026-02-18 09:36 50.65061 8.04609 22984 ft 467 kts 152°
2026-02-18 09:36 50.62286 8.07308 23402 ft 470 kts 152°
2026-02-18 09:36 50.59528 8.10232 23694 ft 476 kts 145°
2026-02-18 09:37 50.56964 8.13548 24028 ft 477 kts 143°
2026-02-18 09:37 50.51864 8.20275 24677 ft 480 kts 143°
2026-02-18 09:37 50.49295 8.23648 24966 ft 482 kts 143°
2026-02-18 09:38 50.46713 8.27024 25249 ft 484 kts 144°
2026-02-18 09:38 50.44116 8.30409 25527 ft 487 kts 144°
2026-02-18 09:38 50.41504 8.33812 25805 ft 489 kts 144°
2026-02-18 09:38 50.38886 8.37224 26037 ft 492 kts 144°
2026-02-18 09:39 50.36244 8.40658 26268 ft 495 kts 144°
2026-02-18 09:39 50.33608 8.44076 26480 ft 498 kts 144°
2026-02-18 09:39 50.30934 8.47540 26801 ft 499 kts 144°
2026-02-18 09:39 50.28255 8.51003 27074 ft 500 kts 144°
2026-02-18 09:40 50.25567 8.54473 27333 ft 502 kts 144°
2026-02-18 09:40 50.22869 8.57950 27572 ft 504 kts 144°
2026-02-18 09:40 50.20159 8.61440 27868 ft 505 kts 144°
2026-02-18 09:40 50.17456 8.64920 28179 ft 504 kts 145°
2026-02-18 09:41 50.14746 8.68401 28502 ft 504 kts 145°
2026-02-18 09:41 50.09323 8.75344 29114 ft 504 kts 145°
2026-02-18 09:41 50.06692 8.78949 29334 ft 509 kts 137°
2026-02-18 09:42 50.04557 8.83395 29552 ft 516 kts 121°
2026-02-18 09:42 50.02950 8.88398 29817 ft 517 kts 116°
2026-02-18 09:42 50.01430 8.93459 30081 ft 518 kts 116°
2026-02-18 09:42 49.99903 8.98503 30287 ft 518 kts 116°
2026-02-18 09:43 49.98339 9.03571 30488 ft 518 kts 117°
2026-02-18 09:43 49.96764 9.08607 30684 ft 519 kts 117°
2026-02-18 09:43 49.95180 9.13648 30887 ft 519 kts 117°
2026-02-18 09:43 49.93596 9.18684 31062 ft 520 kts 117°
2026-02-18 09:44 49.92005 9.23732 31255 ft 521 kts 117°
2026-02-18 09:44 49.90412 9.28787 31444 ft 521 kts 117°
2026-02-18 09:44 49.88819 9.33833 31625 ft 522 kts 117°
2026-02-18 09:44 49.87218 9.38889 31810 ft 522 kts 117°
2026-02-18 09:45 49.85638 9.43865 31981 ft 522 kts 117°
2026-02-18 09:45 49.82189 9.53740 32295 ft 520 kts 128°
2026-02-18 09:45 49.79848 9.57978 32444 ft 516 kts 139°
2026-02-18 09:46 49.74604 9.65546 32666 ft 516 kts 142°
2026-02-18 09:46 49.71962 9.69300 32796 ft 517 kts 141°
2026-02-18 09:46 49.69322 9.73089 32931 ft 518 kts 141°
2026-02-18 09:47 49.66688 9.76888 33034 ft 519 kts 141°
2026-02-18 09:47 49.64059 9.80686 33031 ft 518 kts 141°
2026-02-18 09:47 49.58792 9.88262 32997 ft 517 kts 141°
2026-02-18 09:48 49.53549 9.95784 32949 ft 517 kts 141°
2026-02-18 09:48 49.48251 10.03363 32985 ft 519 kts 141°
2026-02-18 09:49 49.40310 10.14673 32991 ft 519 kts 141°
2026-02-18 09:50 49.35010 10.22194 33000 ft 519 kts 141°
2026-02-18 09:50 49.29713 10.29687 33024 ft 518 kts 141°
2026-02-18 09:51 49.24381 10.37131 32978 ft 518 kts 144°
2026-02-18 09:51 49.18431 10.43118 33022 ft 511 kts 155°
2026-02-18 09:52 49.12296 10.48628 33033 ft 512 kts 155°
2026-02-18 09:52 49.06173 10.54166 33031 ft 511 kts 155°
2026-02-18 09:53 49.00041 10.59723 32998 ft 515 kts 155°
2026-02-18 09:53 48.90855 10.68018 33022 ft 511 kts 155°
2026-02-18 09:54 48.84732 10.73517 33016 ft 511 kts 155°
2026-02-18 09:54 48.79042 10.80100 32963 ft 522 kts 136°
2026-02-18 09:55 48.74166 10.88323 32995 ft 525 kts 134°
2026-02-18 09:55 48.69303 10.96582 33012 ft 524 kts 134°
2026-02-18 09:56 48.64413 11.04748 32999 ft 523 kts 135°
2026-02-18 09:56 48.59522 11.12874 32997 ft 523 kts 135°
2026-02-18 09:57 48.52183 11.25041 32978 ft 523 kts 135°
2026-02-18 09:58 48.47272 11.33145 33006 ft 522 kts 135°
2026-02-18 09:58 48.42345 11.41261 33014 ft 521 kts 135°
2026-02-18 09:59 48.37444 11.49303 33022 ft 521 kts 135°
2026-02-18 09:59 48.32543 11.57325 33019 ft 521 kts 135°
2026-02-18 10:00 48.27631 11.65336 33035 ft 521 kts 135°
2026-02-18 10:00 48.22438 11.72859 33022 ft 519 kts 141°
2026-02-18 10:01 48.17134 11.80129 33016 ft 520 kts 141°
2026-02-18 10:01 48.09138 11.91076 33004 ft 520 kts 141°
2026-02-18 10:02 48.03804 11.98357 33016 ft 519 kts 141°
2026-02-18 10:02 47.98437 12.05659 32980 ft 519 kts 141°
2026-02-18 10:03 47.93096 12.12906 32995 ft 519 kts 141°
2026-02-18 10:03 47.87750 12.20135 32998 ft 518 kts 141°
2026-02-18 10:04 47.82441 12.27300 33002 ft 518 kts 141°
2026-02-18 10:04 47.77059 12.34542 32961 ft 519 kts 141°
2026-02-18 10:05 47.69066 12.45251 33004 ft 518 kts 141°
2026-02-18 10:06 47.63744 12.52359 33008 ft 518 kts 141°
2026-02-18 10:06 47.58222 12.59202 32998 ft 519 kts 144°
2026-02-18 10:07 47.52633 12.65950 32980 ft 519 kts 144°
2026-02-18 10:07 47.47037 12.72704 32974 ft 518 kts 144°
2026-02-18 10:08 47.41448 12.79428 32971 ft 518 kts 144°
2026-02-18 10:08 47.35845 12.86144 32990 ft 518 kts 144°
2026-02-18 10:09 47.30249 12.92839 33007 ft 519 kts 144°
2026-02-18 10:09 47.21849 13.02850 33026 ft 516 kts 145°
2026-02-18 10:10 47.16257 13.09492 33009 ft 517 kts 145°
2026-02-18 10:10 47.10663 13.16118 33038 ft 516 kts 145°
2026-02-18 10:11 47.05070 13.22724 33033 ft 517 kts 145°
2026-02-18 10:11 46.99465 13.29326 33033 ft 516 kts 145°
2026-02-18 10:12 46.93859 13.35913 33049 ft 516 kts 145°
2026-02-18 10:12 46.88256 13.42477 33019 ft 516 kts 145°
2026-02-18 10:13 46.79837 13.52302 33046 ft 516 kts 145°
2026-02-18 10:14 46.74203 13.58854 33037 ft 520 kts 145°
2026-02-18 10:14 46.68551 13.65415 33036 ft 519 kts 145°
2026-02-18 10:15 46.62897 13.71954 33026 ft 519 kts 145°
2026-02-18 10:15 46.57237 13.78482 33024 ft 519 kts 145°
2026-02-18 10:16 46.51578 13.84997 33029 ft 519 kts 145°
2026-02-18 10:16 46.46864 13.90405 33023 ft 520 kts 145°
2026-02-18 10:17 46.41200 13.96892 33039 ft 519 kts 145°
2026-02-18 10:17 46.32692 14.06598 33012 ft 520 kts 145°
2026-02-18 10:18 46.27022 14.13042 33020 ft 518 kts 146°
2026-02-18 10:18 46.21309 14.19521 33024 ft 518 kts 146°
2026-02-18 10:19 46.15639 14.25932 33021 ft 518 kts 146°
2026-02-18 10:19 46.09964 14.32341 33024 ft 518 kts 146°
2026-02-18 10:20 46.04287 14.38737 32998 ft 518 kts 146°
2026-02-18 10:20 45.98643 14.45209 33022 ft 520 kts 146°
2026-02-18 10:21 45.90150 14.54897 33016 ft 519 kts 146°
2026-02-18 10:22 45.84491 14.61323 33011 ft 519 kts 146°
2026-02-18 10:22 45.78819 14.67750 33016 ft 519 kts 146°